Year,Month,Day,Hour,Minute,Value (Times are PST for temperature in C)
2019,04,02,00,00,9.10
2019,04,02,00,01,9.00
2019,04,02,00,02,9.00
2019,04,02,00,03,9.00
2019,04,02,00,04,8.90
2019,04,02,00,05,8.90
2019,04,02,00,06,8.80
2019,04,02,00,07,8.80
2019,04,02,00,08,8.70
2019,04,02,00,09,8.70
2019,04,02,00,10,8.60
2019,04,02,00,11,8.60
2019,04,02,00,12,8.50
2019,04,02,00,13,8.50
2019,04,02,00,14,8.40
2019,04,02,00,15,8.40
2019,04,02,00,16,8.40
2019,04,02,00,17,8.40
2019,04,02,00,18,8.40
2019,04,02,00,19,8.40
2019,04,02,00,20,8.40
2019,04,02,00,21,8.30
2019,04,02,00,22,8.30
2019,04,02,00,23,8.30
2019,04,02,00,24,8.30
2019,04,02,00,25,8.30
2019,04,02,00,26,8.30
2019,04,02,00,27,8.30
2019,04,02,00,28,8.30
2019,04,02,00,29,8.30
2019,04,02,00,30,8.30
2019,04,02,00,31,8.30
2019,04,02,00,32,8.30
2019,04,02,00,33,8.30
2019,04,02,00,34,8.30
2019,04,02,00,35,8.20
2019,04,02,00,36,8.20
2019,04,02,00,37,8.20
2019,04,02,00,38,8.10
2019,04,02,00,39,8.00
2019,04,02,00,40,8.00
2019,04,02,00,41,7.90
2019,04,02,00,42,7.90
2019,04,02,00,43,7.90
2019,04,02,00,44,7.90
2019,04,02,00,45,8.00
2019,04,02,00,46,8.00
2019,04,02,00,47,7.90
2019,04,02,00,48,7.90
2019,04,02,00,49,7.90
2019,04,02,00,50,7.80
2019,04,02,00,51,7.80
2019,04,02,00,52,7.90
2019,04,02,00,53,7.90
2019,04,02,00,54,7.90
2019,04,02,00,55,7.90
2019,04,02,00,56,7.90
2019,04,02,00,57,7.90
2019,04,02,00,58,7.90
2019,04,02,00,59,7.90
2019,04,02,01,00,7.90
2019,04,02,01,01,7.90
2019,04,02,01,02,7.90
2019,04,02,01,03,7.90
2019,04,02,01,04,7.90
2019,04,02,01,05,7.90
2019,04,02,01,06,7.90
2019,04,02,01,07,7.90
2019,04,02,01,08,8.00
2019,04,02,01,09,8.00
2019,04,02,01,10,8.10
2019,04,02,01,11,8.10
2019,04,02,01,12,8.20
2019,04,02,01,13,8.20
2019,04,02,01,14,8.20
2019,04,02,01,15,8.30
2019,04,02,01,16,8.30
2019,04,02,01,17,8.30
2019,04,02,01,18,8.40
2019,04,02,01,19,8.40
2019,04,02,01,20,8.40
2019,04,02,01,21,8.50
2019,04,02,01,22,8.50
2019,04,02,01,23,8.50
2019,04,02,01,24,8.50
2019,04,02,01,25,8.50
2019,04,02,01,26,8.60
2019,04,02,01,27,8.60
2019,04,02,01,28,8.60
2019,04,02,01,29,8.60
2019,04,02,01,30,8.60
2019,04,02,01,31,8.60
2019,04,02,01,32,8.60
2019,04,02,01,33,8.50
2019,04,02,01,34,8.50
2019,04,02,01,35,8.40
2019,04,02,01,36,8.40
2019,04,02,01,37,8.40
2019,04,02,01,38,8.30
2019,04,02,01,39,8.30
2019,04,02,01,40,8.30
2019,04,02,01,41,8.30
2019,04,02,01,42,8.20
2019,04,02,01,43,8.20
2019,04,02,01,44,8.10
2019,04,02,01,45,8.10
2019,04,02,01,46,8.10
2019,04,02,01,47,8.00
2019,04,02,01,48,7.90
2019,04,02,01,49,7.90
2019,04,02,01,50,7.90
2019,04,02,01,51,7.90
2019,04,02,01,52,7.90
2019,04,02,01,53,7.80
2019,04,02,01,54,7.80
2019,04,02,01,55,7.80
2019,04,02,01,56,7.80
2019,04,02,01,57,7.80
2019,04,02,01,58,7.80
2019,04,02,01,59,7.80
2019,04,02,02,00,7.80
2019,04,02,02,01,7.70
2019,04,02,02,02,7.70
2019,04,02,02,03,7.70
2019,04,02,02,04,7.70
2019,04,02,02,05,7.70
2019,04,02,02,06,7.80
2019,04,02,02,07,7.80
2019,04,02,02,08,7.90
2019,04,02,02,09,8.00
2019,04,02,02,10,8.00
2019,04,02,02,11,8.20
2019,04,02,02,12,8.30
2019,04,02,02,13,8.40
2019,04,02,02,14,8.50
2019,04,02,02,15,8.60
2019,04,02,02,16,8.70
2019,04,02,02,17,8.80
2019,04,02,02,18,8.90
2019,04,02,02,19,9.00
2019,04,02,02,20,9.10
2019,04,02,02,21,9.20
2019,04,02,02,22,9.20
2019,04,02,02,23,9.30
2019,04,02,02,24,9.30
2019,04,02,02,25,9.40
2019,04,02,02,26,9.50
2019,04,02,02,27,9.50
2019,04,02,02,28,9.60
2019,04,02,02,29,9.70
2019,04,02,02,30,9.70
2019,04,02,02,31,9.80
2019,04,02,02,32,9.80
2019,04,02,02,33,9.90
2019,04,02,02,34,9.90
2019,04,02,02,35,10.00
2019,04,02,02,36,10.00
2019,04,02,02,37,10.00
2019,04,02,02,38,10.10
2019,04,02,02,39,10.10
2019,04,02,02,40,10.10
2019,04,02,02,41,10.10
2019,04,02,02,42,10.10
2019,04,02,02,43,10.10
2019,04,02,02,44,10.10
2019,04,02,02,45,10.10
2019,04,02,02,46,10.00
2019,04,02,02,47,10.00
2019,04,02,02,48,9.90
2019,04,02,02,49,9.90
2019,04,02,02,50,9.80
2019,04,02,02,51,9.80
2019,04,02,02,52,9.80
2019,04,02,02,53,9.80
2019,04,02,02,54,9.80
2019,04,02,02,55,9.80
2019,04,02,02,56,9.80
2019,04,02,02,57,9.80
2019,04,02,02,58,9.80
2019,04,02,02,59,9.70
2019,04,02,03,00,9.70
2019,04,02,03,01,9.70
2019,04,02,03,02,9.70
2019,04,02,03,03,9.70
2019,04,02,03,04,9.70
2019,04,02,03,05,9.70
2019,04,02,03,06,9.70
2019,04,02,03,07,9.70
2019,04,02,03,08,9.70
2019,04,02,03,09,9.70
2019,04,02,03,10,9.70
2019,04,02,03,11,9.60
2019,04,02,03,12,9.60
2019,04,02,03,13,9.60
2019,04,02,03,14,9.60
2019,04,02,03,15,9.60
2019,04,02,03,16,9.60
2019,04,02,03,17,9.60
2019,04,02,03,18,9.60
2019,04,02,03,19,9.60
2019,04,02,03,20,9.60
2019,04,02,03,21,9.70
2019,04,02,03,22,9.70
2019,04,02,03,23,9.70
2019,04,02,03,24,9.70
2019,04,02,03,25,9.80
2019,04,02,03,26,9.80
2019,04,02,03,27,9.80
2019,04,02,03,28,9.90
2019,04,02,03,29,9.90
2019,04,02,03,30,10.00
2019,04,02,03,31,10.00
2019,04,02,03,32,10.00
2019,04,02,03,33,10.10
2019,04,02,03,34,10.10
2019,04,02,03,35,10.10
2019,04,02,03,36,10.10
2019,04,02,03,37,10.10
2019,04,02,03,38,10.20
2019,04,02,03,39,10.20
2019,04,02,03,40,10.20
2019,04,02,03,41,10.30
2019,04,02,03,42,10.30
2019,04,02,03,43,10.40
2019,04,02,03,44,10.40
2019,04,02,03,45,10.50
2019,04,02,03,46,10.50
2019,04,02,03,47,10.60
2019,04,02,03,48,10.60
2019,04,02,03,49,10.70
2019,04,02,03,50,10.70
2019,04,02,03,51,10.70
2019,04,02,03,52,10.80
2019,04,02,03,53,10.80
2019,04,02,03,54,10.80
2019,04,02,03,55,10.80
2019,04,02,03,56,10.80
2019,04,02,03,57,10.80
2019,04,02,03,58,10.80
2019,04,02,03,59,10.80
2019,04,02,04,00,10.80
2019,04,02,04,01,10.80
2019,04,02,04,02,10.80
2019,04,02,04,03,10.80
2019,04,02,04,04,10.80
2019,04,02,04,05,10.80
2019,04,02,04,06,10.80
2019,04,02,04,07,10.80
2019,04,02,04,08,10.80
2019,04,02,04,09,10.90
2019,04,02,04,10,10.90
2019,04,02,04,11,11.00
2019,04,02,04,12,11.00
2019,04,02,04,13,11.00
2019,04,02,04,14,11.10
2019,04,02,04,15,11.10
2019,04,02,04,16,11.10
2019,04,02,04,17,11.10
2019,04,02,04,18,11.20
2019,04,02,04,19,11.20
2019,04,02,04,20,11.20
2019,04,02,04,21,11.20
2019,04,02,04,22,11.20
2019,04,02,04,23,11.20
2019,04,02,04,24,11.20
2019,04,02,04,25,11.20
2019,04,02,04,26,11.20
2019,04,02,04,27,11.20
2019,04,02,04,28,11.20
2019,04,02,04,29,11.20
2019,04,02,04,30,11.20
2019,04,02,04,31,11.20
2019,04,02,04,32,11.20
2019,04,02,04,33,11.20
2019,04,02,04,34,11.20
2019,04,02,04,35,11.30
2019,04,02,04,36,11.30
2019,04,02,04,37,11.30
2019,04,02,04,38,11.30
2019,04,02,04,39,11.30
2019,04,02,04,40,11.30
2019,04,02,04,41,11.30
2019,04,02,04,42,11.30
2019,04,02,04,43,11.30
2019,04,02,04,44,11.30
2019,04,02,04,45,11.30
2019,04,02,04,46,11.30
2019,04,02,04,47,11.30
2019,04,02,04,48,11.30
2019,04,02,04,49,11.30
2019,04,02,04,50,11.30
2019,04,02,04,51,11.30
2019,04,02,04,52,11.30
2019,04,02,04,53,11.30
2019,04,02,04,54,11.30
2019,04,02,04,55,11.30
2019,04,02,04,56,11.30
2019,04,02,04,57,11.30
2019,04,02,04,58,11.30
2019,04,02,04,59,11.40
2019,04,02,05,00,11.40
2019,04,02,05,01,11.40
2019,04,02,05,02,11.40
2019,04,02,05,03,11.40
2019,04,02,05,04,11.40
2019,04,02,05,05,11.40
2019,04,02,05,06,11.50
2019,04,02,05,07,11.50
2019,04,02,05,08,11.50
2019,04,02,05,09,11.50
2019,04,02,05,10,11.60
2019,04,02,05,11,11.60
2019,04,02,05,12,11.60
2019,04,02,05,13,11.60
2019,04,02,05,14,11.60
2019,04,02,05,15,11.60
2019,04,02,05,16,11.60
2019,04,02,05,17,11.60
2019,04,02,05,18,11.70
2019,04,02,05,19,11.70
2019,04,02,05,20,11.70
2019,04,02,05,21,11.70
2019,04,02,05,22,11.70
2019,04,02,05,23,11.70
2019,04,02,05,24,11.70
2019,04,02,05,25,11.60
2019,04,02,05,26,11.60
2019,04,02,05,27,11.60
2019,04,02,05,28,11.60
2019,04,02,05,29,11.60
2019,04,02,05,30,11.60
2019,04,02,05,31,11.60
2019,04,02,05,32,11.60
2019,04,02,05,33,11.60
2019,04,02,05,34,11.60
2019,04,02,05,35,11.60
2019,04,02,05,36,11.60
2019,04,02,05,37,11.60
2019,04,02,05,38,11.60
2019,04,02,05,39,11.60
2019,04,02,05,40,11.60
2019,04,02,05,41,11.60
2019,04,02,05,42,11.60
2019,04,02,05,43,11.60
2019,04,02,05,44,11.60
2019,04,02,05,45,11.70
2019,04,02,05,46,11.70
2019,04,02,05,47,11.70
2019,04,02,05,48,11.70
2019,04,02,05,49,11.80
2019,04,02,05,50,11.80
2019,04,02,05,51,11.80
2019,04,02,05,52,11.80
2019,04,02,05,53,11.90
2019,04,02,05,54,11.90
2019,04,02,05,55,11.90
2019,04,02,05,56,11.90
2019,04,02,05,57,11.90
2019,04,02,05,58,11.90
2019,04,02,05,59,11.90
2019,04,02,06,00,11.90
2019,04,02,06,01,11.90
2019,04,02,06,02,11.90
2019,04,02,06,03,11.80
2019,04,02,06,04,11.80
2019,04,02,06,05,11.80
2019,04,02,06,06,11.80
2019,04,02,06,07,11.80
2019,04,02,06,08,11.80
2019,04,02,06,09,11.70
2019,04,02,06,10,11.80
2019,04,02,06,11,11.80
2019,04,02,06,12,11.80
2019,04,02,06,13,11.80
2019,04,02,06,14,11.80
2019,04,02,06,15,11.80
2019,04,02,06,16,11.80
2019,04,02,06,17,11.80
2019,04,02,06,18,11.80
2019,04,02,06,19,11.80
2019,04,02,06,20,11.80
2019,04,02,06,21,11.80
2019,04,02,06,22,11.80
2019,04,02,06,23,11.80
2019,04,02,06,24,11.80
2019,04,02,06,25,11.80
2019,04,02,06,26,11.80
2019,04,02,06,27,11.80
2019,04,02,06,28,11.80
2019,04,02,06,29,11.70
2019,04,02,06,30,11.70
2019,04,02,06,31,11.70
2019,04,02,06,32,11.70
2019,04,02,06,33,11.70
2019,04,02,06,34,11.70
2019,04,02,06,35,11.70
2019,04,02,06,36,11.70
2019,04,02,06,37,11.70
2019,04,02,06,38,11.70
2019,04,02,06,39,11.70
2019,04,02,06,40,11.70
2019,04,02,06,41,11.70
2019,04,02,06,42,11.60
2019,04,02,06,43,11.60
2019,04,02,06,44,11.60
2019,04,02,06,45,11.60
2019,04,02,06,46,11.60
2019,04,02,06,47,11.50
2019,04,02,06,48,11.50
2019,04,02,06,49,11.40
2019,04,02,06,50,11.40
2019,04,02,06,51,11.40
2019,04,02,06,52,11.40
2019,04,02,06,53,11.40
2019,04,02,06,54,11.40
2019,04,02,06,55,11.30
2019,04,02,06,56,11.30
2019,04,02,06,57,11.30
2019,04,02,06,58,11.30
2019,04,02,06,59,11.30
2019,04,02,07,00,11.30
2019,04,02,07,01,11.30
2019,04,02,07,02,11.20
2019,04,02,07,03,11.20
2019,04,02,07,04,11.20
2019,04,02,07,05,11.20
2019,04,02,07,06,11.20
2019,04,02,07,07,11.20
2019,04,02,07,08,11.20
2019,04,02,07,09,11.20
2019,04,02,07,10,11.20
2019,04,02,07,11,11.20
2019,04,02,07,12,11.10
2019,04,02,07,13,11.10
2019,04,02,07,14,11.10
2019,04,02,07,15,11.10
2019,04,02,07,16,11.10
2019,04,02,07,17,11.10
2019,04,02,07,18,11.10
2019,04,02,07,19,11.10
2019,04,02,07,20,11.10
2019,04,02,07,21,11.20
2019,04,02,07,22,11.20
2019,04,02,07,23,11.20
2019,04,02,07,24,11.20
2019,04,02,07,25,11.20
2019,04,02,07,26,11.30
2019,04,02,07,27,11.30
2019,04,02,07,28,11.30
2019,04,02,07,29,11.30
2019,04,02,07,30,11.40
2019,04,02,07,31,11.40
2019,04,02,07,32,11.40
2019,04,02,07,33,11.50
2019,04,02,07,34,11.60
2019,04,02,07,35,11.60
2019,04,02,07,36,11.60
2019,04,02,07,37,11.60
2019,04,02,07,38,11.70
2019,04,02,07,39,11.70
2019,04,02,07,40,11.70
2019,04,02,07,41,11.70
2019,04,02,07,42,11.80
2019,04,02,07,43,11.80
2019,04,02,07,44,11.80
2019,04,02,07,45,11.90
2019,04,02,07,46,11.90
2019,04,02,07,47,11.90
2019,04,02,07,48,12.00
2019,04,02,07,49,12.00
2019,04,02,07,50,12.00
2019,04,02,07,51,12.10
2019,04,02,07,52,12.10
2019,04,02,07,53,12.20
2019,04,02,07,54,12.20
2019,04,02,07,55,12.30
2019,04,02,07,56,12.30
2019,04,02,07,57,12.30
2019,04,02,07,58,12.40
2019,04,02,07,59,12.50
2019,04,02,08,00,12.50
2019,04,02,08,01,12.60
2019,04,02,08,02,12.70
2019,04,02,08,03,12.70
2019,04,02,08,04,12.80
2019,04,02,08,05,12.80
2019,04,02,08,06,12.90
2019,04,02,08,07,12.90
2019,04,02,08,08,13.00
2019,04,02,08,09,13.10
2019,04,02,08,10,13.20
2019,04,02,08,11,13.20
2019,04,02,08,12,13.30
2019,04,02,08,13,13.30
2019,04,02,08,14,13.30
2019,04,02,08,15,13.40
2019,04,02,08,16,13.40
2019,04,02,08,17,13.40
2019,04,02,08,18,13.40
2019,04,02,08,19,13.50
2019,04,02,08,20,13.50
2019,04,02,08,21,13.50
2019,04,02,08,22,13.50
2019,04,02,08,23,13.50
2019,04,02,08,24,13.60
2019,04,02,08,25,13.60
2019,04,02,08,26,13.70
2019,04,02,08,27,13.70
2019,04,02,08,28,13.80
2019,04,02,08,29,13.80
2019,04,02,08,30,13.90
2019,04,02,08,31,14.00
2019,04,02,08,32,14.10
2019,04,02,08,33,14.10
2019,04,02,08,34,14.20
2019,04,02,08,35,14.20
2019,04,02,08,36,14.30
2019,04,02,08,37,14.30
2019,04,02,08,38,14.30
2019,04,02,08,39,14.40
2019,04,02,08,40,14.40
2019,04,02,08,41,14.40
2019,04,02,08,42,14.40
2019,04,02,08,43,14.50
2019,04,02,08,44,14.50
2019,04,02,08,45,14.50
2019,04,02,08,46,14.50
2019,04,02,08,47,14.40
2019,04,02,08,48,14.40
2019,04,02,08,49,14.40
2019,04,02,08,50,14.40
2019,04,02,08,51,14.40
2019,04,02,08,52,14.40
2019,04,02,08,53,14.40
2019,04,02,08,54,14.40
2019,04,02,08,55,14.50
2019,04,02,08,56,14.50
2019,04,02,08,57,14.50
2019,04,02,08,58,14.40
2019,04,02,08,59,14.40
2019,04,02,09,00,14.40
2019,04,02,09,01,14.40
2019,04,02,09,02,14.40
2019,04,02,09,03,14.50
2019,04,02,09,04,14.50
2019,04,02,09,05,14.60
2019,04,02,09,06,14.70
2019,04,02,09,07,14.70
2019,04,02,09,08,14.70
2019,04,02,09,09,14.70
2019,04,02,09,10,14.80
2019,04,02,09,11,14.80
2019,04,02,09,12,14.80
2019,04,02,09,13,14.90
2019,04,02,09,14,14.90
2019,04,02,09,15,14.90
2019,04,02,09,16,14.90
2019,04,02,09,17,14.80
2019,04,02,09,18,14.80
2019,04,02,09,19,14.80
2019,04,02,09,20,14.80
2019,04,02,09,21,14.80
2019,04,02,09,22,14.80
2019,04,02,09,23,14.80
2019,04,02,09,24,14.80
2019,04,02,09,25,14.80
2019,04,02,09,26,14.80
2019,04,02,09,27,14.80
2019,04,02,09,28,14.80
2019,04,02,09,29,14.80
2019,04,02,09,30,14.90
2019,04,02,09,31,14.90
2019,04,02,09,32,14.90
2019,04,02,09,33,14.90
2019,04,02,09,34,14.90
2019,04,02,09,35,15.00
2019,04,02,09,36,15.00
2019,04,02,09,37,15.00
2019,04,02,09,38,15.00
2019,04,02,09,39,15.00
2019,04,02,09,40,15.10
2019,04,02,09,41,15.10
2019,04,02,09,42,15.10
2019,04,02,09,43,15.10
2019,04,02,09,44,15.20
2019,04,02,09,45,15.20
2019,04,02,09,46,15.20
2019,04,02,09,47,15.20
2019,04,02,09,48,15.20
2019,04,02,09,49,15.30
2019,04,02,09,50,15.30
2019,04,02,09,51,15.40
2019,04,02,09,52,15.40
2019,04,02,09,53,15.40
2019,04,02,09,54,15.40
2019,04,02,09,55,15.40
2019,04,02,09,56,15.40
2019,04,02,09,57,15.40
2019,04,02,09,58,15.30
2019,04,02,09,59,15.30
2019,04,02,10,00,15.30
2019,04,02,10,01,15.30
2019,04,02,10,02,15.30
2019,04,02,10,03,15.40
2019,04,02,10,04,15.50
2019,04,02,10,05,15.50
2019,04,02,10,06,15.60
2019,04,02,10,07,15.70
2019,04,02,10,08,15.70
2019,04,02,10,09,15.80
2019,04,02,10,10,15.70
2019,04,02,10,11,15.70
2019,04,02,10,12,15.60
2019,04,02,10,13,15.60
2019,04,02,10,14,15.60
2019,04,02,10,15,15.60
2019,04,02,10,16,15.60
2019,04,02,10,17,15.70
2019,04,02,10,18,15.70
2019,04,02,10,19,15.80
2019,04,02,10,20,15.80
2019,04,02,10,21,15.90
2019,04,02,10,22,15.90
2019,04,02,10,23,15.80
2019,04,02,10,24,15.90
2019,04,02,10,25,15.90
2019,04,02,10,26,16.00
2019,04,02,10,27,16.00
2019,04,02,10,28,16.10
2019,04,02,10,29,16.10
2019,04,02,10,30,16.20
2019,04,02,10,31,16.10
2019,04,02,10,32,16.10
2019,04,02,10,33,16.10
2019,04,02,10,34,16.00
2019,04,02,10,35,15.90
2019,04,02,10,36,15.90
2019,04,02,10,37,15.80
2019,04,02,10,38,15.80
2019,04,02,10,39,15.80
2019,04,02,10,40,15.80
2019,04,02,10,41,15.80
2019,04,02,10,42,15.80
2019,04,02,10,43,15.90
2019,04,02,10,44,15.90
2019,04,02,10,45,16.00
2019,04,02,10,46,16.10
2019,04,02,10,47,16.20
2019,04,02,10,48,16.20
2019,04,02,10,49,16.20
2019,04,02,10,50,16.20
2019,04,02,10,51,16.20
2019,04,02,10,52,16.20
2019,04,02,10,53,16.10
2019,04,02,10,54,16.10
2019,04,02,10,55,16.10
2019,04,02,10,56,16.10
2019,04,02,10,57,16.00
2019,04,02,10,58,16.00
2019,04,02,10,59,16.00
2019,04,02,11,00,15.90
2019,04,02,11,01,15.90
2019,04,02,11,02,15.90
2019,04,02,11,03,15.90
2019,04,02,11,04,15.90
2019,04,02,11,05,15.90
2019,04,02,11,06,15.90
2019,04,02,11,07,15.90
2019,04,02,11,08,16.00
2019,04,02,11,09,16.00
2019,04,02,11,10,16.10
2019,04,02,11,11,16.20
2019,04,02,11,12,16.20
2019,04,02,11,13,16.20
2019,04,02,11,14,16.30
2019,04,02,11,15,16.20
2019,04,02,11,16,16.20
2019,04,02,11,17,16.10
2019,04,02,11,18,16.20
2019,04,02,11,19,16.30
2019,04,02,11,20,16.40
2019,04,02,11,21,16.50
2019,04,02,11,22,16.50
2019,04,02,11,23,16.60
2019,04,02,11,24,16.70
2019,04,02,11,25,16.70
2019,04,02,11,26,16.70
2019,04,02,11,27,16.60
2019,04,02,11,28,16.60
2019,04,02,11,29,16.50
2019,04,02,11,30,16.40
2019,04,02,11,31,16.40
2019,04,02,11,32,16.30
2019,04,02,11,33,16.30
2019,04,02,11,34,16.30
2019,04,02,11,35,16.30
2019,04,02,11,36,16.30
2019,04,02,11,37,16.30
2019,04,02,11,38,16.30
2019,04,02,11,39,16.30
2019,04,02,11,40,16.30
2019,04,02,11,41,16.30
2019,04,02,11,42,16.20
2019,04,02,11,43,16.20
2019,04,02,11,44,16.20
2019,04,02,11,45,16.20
2019,04,02,11,46,16.20
2019,04,02,11,47,16.20
2019,04,02,11,48,16.20
2019,04,02,11,49,16.20
2019,04,02,11,50,16.20
2019,04,02,11,51,16.10
2019,04,02,11,52,16.10
2019,04,02,11,53,16.10
2019,04,02,11,54,16.10
2019,04,02,11,55,16.10
2019,04,02,11,56,16.20
2019,04,02,11,57,16.30
2019,04,02,11,58,16.30
2019,04,02,11,59,16.40
2019,04,02,12,00,16.40
2019,04,02,12,01,16.50
2019,04,02,12,02,16.50
2019,04,02,12,03,16.60
2019,04,02,12,04,16.60
2019,04,02,12,05,16.70
2019,04,02,12,06,16.80
2019,04,02,12,07,16.80
2019,04,02,12,08,16.80
2019,04,02,12,09,16.80
2019,04,02,12,10,16.90
2019,04,02,12,11,17.10
2019,04,02,12,12,17.30
2019,04,02,12,13,17.40
2019,04,02,12,14,17.40
2019,04,02,12,15,17.40
2019,04,02,12,16,17.40
2019,04,02,12,17,17.30
2019,04,02,12,18,17.30
2019,04,02,12,19,17.30
2019,04,02,12,20,17.30
2019,04,02,12,21,17.30
2019,04,02,12,22,17.30
2019,04,02,12,23,17.40
2019,04,02,12,24,17.40
2019,04,02,12,25,17.40
2019,04,02,12,26,17.40
2019,04,02,12,27,17.30
2019,04,02,12,28,17.30
2019,04,02,12,29,17.30
2019,04,02,12,30,17.30
2019,04,02,12,31,17.30
2019,04,02,12,32,17.30
2019,04,02,12,33,17.30
2019,04,02,12,34,17.30
2019,04,02,12,35,17.30
2019,04,02,12,36,17.40
2019,04,02,12,37,17.50
2019,04,02,12,38,17.70
2019,04,02,12,39,17.80
2019,04,02,12,40,17.90
2019,04,02,12,41,17.90
2019,04,02,12,42,17.90
2019,04,02,12,43,17.80
2019,04,02,12,44,17.80
2019,04,02,12,45,17.70
2019,04,02,12,46,17.70
2019,04,02,12,47,17.70
2019,04,02,12,48,17.70
2019,04,02,12,49,17.70
2019,04,02,12,50,17.80
2019,04,02,12,51,17.80
2019,04,02,12,52,17.80
2019,04,02,12,53,17.80
2019,04,02,12,54,17.70
2019,04,02,12,55,17.70
2019,04,02,12,56,17.70
2019,04,02,12,57,17.60
2019,04,02,12,58,17.60
2019,04,02,12,59,17.60
2019,04,02,13,00,17.50
2019,04,02,13,01,17.50
2019,04,02,13,02,17.40
2019,04,02,13,03,17.40
2019,04,02,13,04,17.40
2019,04,02,13,05,17.40
2019,04,02,13,06,17.40
2019,04,02,13,07,17.40
2019,04,02,13,08,17.40
2019,04,02,13,09,17.30
2019,04,02,13,10,17.40
2019,04,02,13,11,17.40
2019,04,02,13,12,17.40
2019,04,02,13,13,17.30
2019,04,02,13,14,17.30
2019,04,02,13,15,17.30
2019,04,02,13,16,17.30
2019,04,02,13,17,17.20
2019,04,02,13,18,17.30
2019,04,02,13,19,17.30
2019,04,02,13,20,17.40
2019,04,02,13,21,17.40
2019,04,02,13,22,17.40
2019,04,02,13,23,17.50
2019,04,02,13,24,17.50
2019,04,02,13,25,17.50
2019,04,02,13,26,17.60
2019,04,02,13,27,17.60
2019,04,02,13,28,17.50
2019,04,02,13,29,17.50
2019,04,02,13,30,17.60
2019,04,02,13,31,17.60
2019,04,02,13,32,17.50
2019,04,02,13,33,17.50
2019,04,02,13,34,17.50
2019,04,02,13,35,17.40
2019,04,02,13,36,17.40
2019,04,02,13,37,17.40
2019,04,02,13,38,17.40
2019,04,02,13,39,17.40
2019,04,02,13,40,17.40
2019,04,02,13,41,17.40
2019,04,02,13,42,17.40
2019,04,02,13,43,17.50
2019,04,02,13,44,17.60
2019,04,02,13,45,17.60
2019,04,02,13,46,17.70
2019,04,02,13,47,17.70
2019,04,02,13,48,17.70
2019,04,02,13,49,17.70
2019,04,02,13,50,17.70
2019,04,02,13,51,17.70
2019,04,02,13,52,17.80
2019,04,02,13,53,17.80
2019,04,02,13,54,17.80
2019,04,02,13,55,17.80
2019,04,02,13,56,17.80
2019,04,02,13,57,17.80
2019,04,02,13,58,17.80
2019,04,02,13,59,17.80
2019,04,02,14,00,17.80
2019,04,02,14,01,17.90
2019,04,02,14,02,17.90
2019,04,02,14,03,17.80
2019,04,02,14,04,17.80
2019,04,02,14,05,17.80
2019,04,02,14,06,17.90
2019,04,02,14,07,17.90
2019,04,02,14,08,17.90
2019,04,02,14,09,17.90
2019,04,02,14,10,17.90
2019,04,02,14,11,17.90
2019,04,02,14,12,17.80
2019,04,02,14,13,17.80
2019,04,02,14,14,17.80
2019,04,02,14,15,17.80
2019,04,02,14,16,17.80
2019,04,02,14,17,17.80
2019,04,02,14,18,17.70
2019,04,02,14,19,17.70
2019,04,02,14,20,17.70
2019,04,02,14,21,17.70
2019,04,02,14,22,17.70
2019,04,02,14,23,17.70
2019,04,02,14,24,17.60
2019,04,02,14,25,17.60
2019,04,02,14,26,17.60
2019,04,02,14,27,17.50
2019,04,02,14,28,17.50
2019,04,02,14,29,17.40
2019,04,02,14,30,17.40
2019,04,02,14,31,17.40
2019,04,02,14,32,17.50
2019,04,02,14,33,17.50
2019,04,02,14,34,17.50
2019,04,02,14,35,17.60
2019,04,02,14,36,17.60
2019,04,02,14,37,17.60
2019,04,02,14,38,17.70
2019,04,02,14,39,17.60
2019,04,02,14,40,17.60
2019,04,02,14,41,17.60
2019,04,02,14,42,17.60
2019,04,02,14,43,17.60
2019,04,02,14,44,17.60
2019,04,02,14,45,17.60
2019,04,02,14,46,17.60
2019,04,02,14,47,17.60
2019,04,02,14,48,17.60
2019,04,02,14,49,17.70
2019,04,02,14,50,17.70
2019,04,02,14,51,17.70
2019,04,02,14,52,17.60
2019,04,02,14,53,17.60
2019,04,02,14,54,17.60
2019,04,02,14,55,17.60
2019,04,02,14,56,17.60
2019,04,02,14,57,17.60
2019,04,02,14,58,17.60
2019,04,02,14,59,17.60
2019,04,02,15,00,17.60
2019,04,02,15,01,17.60
2019,04,02,15,02,17.60
2019,04,02,15,03,17.60
2019,04,02,15,04,17.60
2019,04,02,15,05,17.60
2019,04,02,15,06,17.60
2019,04,02,15,07,17.60
2019,04,02,15,08,17.60
2019,04,02,15,09,17.60
2019,04,02,15,10,17.60
2019,04,02,15,11,17.60
2019,04,02,15,12,17.60
2019,04,02,15,13,17.50
2019,04,02,15,14,17.50
2019,04,02,15,15,17.50
2019,04,02,15,16,17.50
2019,04,02,15,17,17.50
2019,04,02,15,18,17.50
2019,04,02,15,19,17.60
2019,04,02,15,20,17.60
2019,04,02,15,21,17.60
2019,04,02,15,22,17.60
2019,04,02,15,23,17.60
2019,04,02,15,24,17.60
2019,04,02,15,25,17.60
2019,04,02,15,26,17.70
2019,04,02,15,27,17.70
2019,04,02,15,28,17.70
2019,04,02,15,29,17.70
2019,04,02,15,30,17.70
2019,04,02,15,31,17.70
2019,04,02,15,32,17.70
2019,04,02,15,33,17.70
2019,04,02,15,34,17.70
2019,04,02,15,35,17.70
2019,04,02,15,36,17.70
2019,04,02,15,37,17.70
2019,04,02,15,38,17.80
2019,04,02,15,39,17.80
2019,04,02,15,40,17.80
2019,04,02,15,41,17.80
2019,04,02,15,42,17.80
2019,04,02,15,43,17.80
2019,04,02,15,44,17.80
2019,04,02,15,45,17.80
2019,04,02,15,46,17.80
2019,04,02,15,47,17.70
2019,04,02,15,48,17.70
2019,04,02,15,49,17.70
2019,04,02,15,50,17.80
2019,04,02,15,51,17.80
2019,04,02,15,52,17.80
2019,04,02,15,53,17.80
2019,04,02,15,54,17.90
2019,04,02,15,55,17.90
2019,04,02,15,56,18.00
2019,04,02,15,57,18.00
2019,04,02,15,58,18.10
2019,04,02,15,59,18.10
2019,04,02,16,00,18.10
2019,04,02,16,01,18.10
2019,04,02,16,02,18.00
2019,04,02,16,03,18.00
2019,04,02,16,04,18.00
2019,04,02,16,05,18.00
2019,04,02,16,06,17.90
2019,04,02,16,07,17.90
2019,04,02,16,08,17.90
2019,04,02,16,09,17.90
2019,04,02,16,10,17.90
2019,04,02,16,11,17.90
2019,04,02,16,12,17.90
2019,04,02,16,13,17.90
2019,04,02,16,14,17.90
2019,04,02,16,15,17.90
2019,04,02,16,16,17.90
2019,04,02,16,17,17.80
2019,04,02,16,18,17.80
2019,04,02,16,19,17.80
2019,04,02,16,20,17.80
2019,04,02,16,21,17.80
2019,04,02,16,22,17.80
2019,04,02,16,23,17.90
2019,04,02,16,24,17.90
2019,04,02,16,25,17.90
2019,04,02,16,26,17.90
2019,04,02,16,27,17.90
2019,04,02,16,28,17.90
2019,04,02,16,29,17.90
2019,04,02,16,30,17.80
2019,04,02,16,31,17.80
2019,04,02,16,32,17.80
2019,04,02,16,33,17.80
2019,04,02,16,34,17.70
2019,04,02,16,35,17.60
2019,04,02,16,36,17.40
2019,04,02,16,37,17.10
2019,04,02,16,38,16.90
2019,04,02,16,39,16.70
2019,04,02,16,40,16.40
2019,04,02,16,41,16.00
2019,04,02,16,42,15.70
2019,04,02,16,43,15.60
2019,04,02,16,44,15.50
2019,04,02,16,45,15.40
2019,04,02,16,46,15.40
2019,04,02,16,47,15.30
2019,04,02,16,48,15.30
2019,04,02,16,49,15.30
2019,04,02,16,50,15.20
2019,04,02,16,51,15.20
2019,04,02,16,52,15.10
2019,04,02,16,53,15.10
2019,04,02,16,54,15.10
2019,04,02,16,55,15.10
2019,04,02,16,56,15.10
2019,04,02,16,57,15.10
2019,04,02,16,58,15.00
2019,04,02,16,59,15.00
2019,04,02,17,00,14.90
2019,04,02,17,01,14.90
2019,04,02,17,02,14.90
2019,04,02,17,03,14.90
2019,04,02,17,04,14.80
2019,04,02,17,05,14.80
2019,04,02,17,06,14.80
2019,04,02,17,07,14.80
2019,04,02,17,08,14.80
2019,04,02,17,09,14.80
2019,04,02,17,10,14.80
2019,04,02,17,11,14.70
2019,04,02,17,12,14.70
2019,04,02,17,13,14.70
2019,04,02,17,14,14.80
2019,04,02,17,15,14.80
2019,04,02,17,16,14.80
2019,04,02,17,17,14.80
2019,04,02,17,18,14.80
2019,04,02,17,19,14.80
2019,04,02,17,20,14.90
2019,04,02,17,21,14.90
2019,04,02,17,22,14.90
2019,04,02,17,23,14.90
2019,04,02,17,24,14.90
2019,04,02,17,25,14.90
2019,04,02,17,26,15.00
2019,04,02,17,27,15.00
2019,04,02,17,28,15.00